User: anonymous   Login
Location: Unspecified
(0.0000°N, 0.0000°E)
Time: 05:58:37
(UTC+00:00)
Language:

Cosmos 1266 - Orbit

View from above orbital plane
View from above orbital plane
View from above satellite
View from above satellite

Ground track
Ground track

The orbit data is extracted from the following two-line orbital elements,

1 12409U 81037A   18203.56246507 -.00000084  00000-0  63082-5 0  9991
2 12409  64.7627  18.0439 0032895 338.8437  21.1261 13.90439264891527
Epoch (UTC): 22 July 2018 13:29:56
Eccentricity: 0.0032895
inclination: 64.7627°
perigee height: 903 km
apogee height: 951 km
right ascension of ascending node: 18.0439°
argument of perigee: 338.8437°
revolutions per day: 13.90439264
mean anomaly at epoch: 21.1261°
orbit number at epoch: 89152

The dashed part of the orbit path shows where the satellite is in the earth's shadow,  

DLR